Regional Weather Roundup
Issued by NWS

Home | Current Version | Previous Version | Graphics & Text | Print | Product List | Glossary Off
Versions: 1 2 3 4 5 6 7 8 9 10 11 12 13 14 15 16 17 18 19 20 21 22 23 24 25 26 27 28 29 30 31 32 33 34 35 36 37 38 39 40 41 42 43 44 45 46 47 48 49 50

000
ASUS43 KTOP 230308
RWRKS

WEATHER ROUNDUP FOR KANSAS
NATIONAL WEATHER SERVICE GOODLAND KS
1000 PM CDT THU JUN 22 2017

NOTE:  "FAIR" INDICATES FEW OR NO CLOUDS BELOW 12,000 FEET WITH NO
SIGNIFICANT WEATHER AND/OR OBSTRUCTIONS TO VISIBILITY.

KSZ001>006-013>018-027>032-041>047-230400-
NORTHWEST KANSAS

CITY           SKY/WX    TMP DP  RH WIND       PRES   REMARKS
GOODLAND       PTCLDY    75  59  57 NE16      29.88R
HAYS           CLOUDY    84  68  58 N9        29.77R
HILL CITY      CLOUDY    80  62  54 N18       29.79R
RUSSELL        CLOUDY    86  64  47 N16       29.70R
$$

KSZ061>065-074>080-084>089-230400-
SOUTHWEST KANSAS

CITY           SKY/WX    TMP DP  RH WIND       PRES   REMARKS
DODGE CITY     CLOUDY    81  53  37 NW22G36   29.80R
ELKHART          N/A     72  54  53 N8          N/A
GARDEN CITY    CLOUDY    69  64  84 NE13      29.81R
GREAT BEND     CLOUDY    88  64  45 SW10      29.71R
LIBERAL        CLOUDY    78  61  55 NE10      29.79S
PRATT          MOCLDY    79  61  54 W10       29.73R
$$

KSZ066>073-081>083-090>101-230400-
SOUTHEAST KANSAS

CITY           SKY/WX    TMP DP  RH WIND       PRES   REMARKS
CHANUTE        CLEAR     76  71  85 CALM      29.70R
COFFEYVILLE    CLEAR     79  73  82 CALM      29.68R
HUTCHINSON     CLEAR     82  64  54 SE9       29.66S
MEDICINE LODGE   N/A     84  63  49 SE8       29.67R
NEWTON         CLEAR     78  67  68 SE10      29.68F
PARSONS        CLEAR     76  71  85 CALM      29.70R
WICHITA INTL   PTCLDY    81  71  71 SE10      29.67S
WICHITA JABRA  CLEAR     79  69  71 SE7       29.68S
WICHITA MCCONL CLEAR     81  70  69 S9        29.68S
WINFIELD       CLEAR     80  71  74 SE6       29.69R
$$

KSZ007>012-019>026-033>040-048>060-102>105-230400-
NORTHEAST KANSAS

CITY           SKY/WX    TMP DP  RH WIND       PRES   REMARKS
CONCORDIA      PTCLDY    85  67  54 N14G20    29.67R
EMPORIA        CLEAR     77  72  84 SE7       29.69S
LAWRENCE       MOCLDY    78  75  90 SE3       29.69R
MANHATTAN      CLEAR     82  70  66 S7        29.63F
MARYSVILLE     PTCLDY    79  72  78 SE6       29.66R
OLATHE IND     MOCLDY    78  73  84 S5        29.71R
OLATHE EXE     CLEAR     78  74  87 S3        29.71R
SALINA         CLOUDY    86  65  49 S14       29.63R
TOPEKA BILLARD PTCLDY    82  74  76 SE6       29.67S
TOPEKA FORBES  CLEAR     81  73  76 S7        29.68S
$$



USA.gov is the U.S. government's official web portal to all federal, state and local government web resources and services.